Погода в Лобкове

Россия / Владимирская область     56°29′43″N   38°20′40″E
темп.,
°C
ветер,
м/с
пор.,
м/с
влажн.,
%
обл.,
%
осадки,
мм/ч
давл.,
гПа
погр.,
м
10 августа, ср
ср1000:00+14с269140 0.0 1023151
03:00+11с239454 0.0 102353
06:00+12ссв249290 0.0 102394
09:00+17ссв356610 0.0 1023423
12:00+22с454387 0.0 10231750
15:00+20с3551100 0.0 1023808
18:00+18с386275 0.0 1023381
21:00+15с277125 0.0 1024134
11 августа, чт
чт1100:00+12ссв237986 0.0 102543
03:00+11ссв22810 0.0 102520
06:00+11св23810 0.0 102755
09:00+18ссв23530 0.0 1026433
12:00+22с22380 0.0 10261516
15:00+23ссз21350 0.0 10251808
18:00+22сз23480 0.0 1024209
21:00+15с11625 0.0 102511
12 августа, пт
пт1200:00+13в00661 0.0 102510
03:00+12юз1169100 0.0 102510
06:00+13зсз117057 0.0 102612
09:00+20з22515 0.0 1026357
12:00+24зсз233959 0.0 10251370
15:00+25зсз33375 0.0 10231612
18:00+23зсз24507 0.0 1023177
21:00+17зсз11705 0.0 102311
13 августа, сб
сб1300:00+15зсз117430 0.0 102411
03:00+14зсз11765 0.0 102411
06:00+15сз11770 0.0 102411
09:00+22зсз11550 0.0 1024371
12:00+26сз11430 0.0 10231436
15:00+27с11394 0.0 10221858
18:00+25ссв12528 0.0 1021123
21:00+18в117041 0.0 102211
14 августа, вс
вс1400:00+18вюв117099 0.0 102211
03:00+16юв2274100 0.0 102112
06:00+17юв227299 0.0 102148
09:00+20ююв2462100 0.0 1021265
12:00+19юв2567100 0.0 1021136
15:00+19юв2373100 0.1 1021102
18:00+21вюв126584 0.0 1020124
21:00+19вюв117495 0.1 102011